User: anonymous   Login
Location: Lower Kingswood
(51.2667°N, 0.2167°W)
Time: 16:11:41
(UTC+00:00)
Language:

BlueWalker 3 - Orbit

View from above orbital plane
View from above orbital plane
View from above satellite
View from above satellite

Ground track
Ground track

The orbit data is extracted from the following two-line orbital elements,

1 53807U 22111AL  24061.99641313  .00006044  00000-0  25684-3 0  9991
2 53807  53.2418 326.8982 0010224 124.1502 236.0469 15.24374916 81876
Epoch (UTC): 01 March 2024 23:54:50
Eccentricity: 0.0010224
inclination: 53.2418°
perigee height: 485 km
apogee height: 499 km
right ascension of ascending node: 326.8982°
argument of perigee: 124.1502°
revolutions per day: 15.24374916
mean anomaly at epoch: 236.0469°
orbit number at epoch: 8187

The dashed part of the orbit path shows where the satellite is in the earth's shadow,  

DLR